Weather History for KPIB - October, 2012

Change the Weather History Date:

Wednesday, October 3, 2012

  Actual Average Record
Temperature  
Mean Temperature 68 °F -  
Max Temperature 80 °F 79 °F 91 °F (2006)
Min Temperature 55 °F 58 °F 44 °F (2011)
Cooling Degree Days 2    
Growing Degree Days 18 (Base 50)    
Moisture  
Dew Point 59 °F    
Average Humidity 81    
Maximum Humidity 94    
Minimum Humidity 44    
Precipitation  
Precipitation 0.51 in - - ()
Sea Level Pressure  
Sea Level Pressure 30.09 in    
Wind  
Wind Speed 2 mph (SE)    
Max Wind Speed 15 mph    
Max Gust Speed 23 mph    
Visibility 9 miles    
Events Thunderstorm    
Averages and records for this station are not official NWS values.
T = Trace of Precipitation, MM = Missing Value Source: NWS Daily Summary

Daily Weather History Graph

Daily Weather History Graph

Search for Another Location

Airport or City:

Trip Planner

Search our weather history database for the weather conditions in past years. The results will help you decide how hot, cold, wet, or windy it might be!

Date:

Astronomy

Oct. 03, 2012 Rise Set
Actual Time 6:52 AM CDT 6:39 PM CDT
Civil Twilight 6:28 AM CDT 7:03 PM CDT
Nautical Twilight 6:00 AM CDT 7:31 PM CDT
Astronomical Twilight 5:32 AM CDT 7:59 PM CDT
Moon 8:47 PM CDT (10/3) 10:00 AM CDT (10/3)
Length of Visible Light 12h 35m
Length of Day
11h 46m
Waning Gibbous, 88% of the Moon is Illuminated
Oct 3
Waning Gibbous
Oct 8
Last Quarter
Oct 15
New
Oct 21
First Quarter
Oct 29
Full

Hourly Weather History & Observations

Time (CDT) Temp. Heat Index Dew Point Humidity Pressure Visibility Wind Dir Wind Speed Gust Speed Precip Events Conditions
12:15 AM 59.0 °F - 55.4 °F 88% 30.02 in 5.0 mi Calm Calm - N/A   Clear
12:35 AM 57.2 °F - 55.4 °F 94% 30.01 in 5.0 mi Calm Calm - N/A   Clear
12:55 AM 57.2 °F - 55.4 °F 94% 30.02 in 5.0 mi Calm Calm - N/A   Clear
1:15 AM 57.2 °F - 55.4 °F 94% 30.02 in 4.0 mi Calm Calm - N/A   Clear
1:35 AM 57.2 °F - 55.4 °F 94% 30.02 in 10.0 mi Calm Calm - N/A   Clear
1:55 AM 57.2 °F - 55.4 °F 94% 30.02 in 7.0 mi Calm Calm - N/A   Clear
2:15 AM 57.2 °F - 55.4 °F 94% 30.02 in 7.0 mi Calm Calm - N/A   Clear
2:35 AM 57.2 °F - 55.4 °F 94% 30.02 in 10.0 mi Calm Calm - N/A   Clear
2:55 AM 57.2 °F - 55.4 °F 94% 30.02 in 10.0 mi Calm Calm - N/A   Clear
3:15 AM 59.0 °F - 55.4 °F 88% 30.02 in 10.0 mi Calm Calm - N/A   Clear
3:35 AM 60.8 °F - 55.4 °F 82% 30.02 in 10.0 mi SE 3.5 mph - 0.01 in   Clear
3:55 AM 59.0 °F - 55.4 °F 88% 30.02 in 10.0 mi Calm Calm - 0.01 in   Clear
4:15 AM 57.2 °F - 53.6 °F 88% 30.03 in 10.0 mi Calm Calm - N/A   Clear
4:35 AM 57.2 °F - 53.6 °F 88% 30.03 in 6.0 mi Calm Calm - N/A   Clear
4:55 AM 55.4 °F - 53.6 °F 94% 30.04 in 4.0 mi Calm Calm - N/A   Clear
5:15 AM 55.4 °F - 53.6 °F 94% 30.04 in 4.0 mi Calm Calm - N/A   Clear
5:35 AM 55.4 °F - 53.6 °F 94% 30.05 in 7.0 mi Calm Calm - N/A   Clear
5:55 AM 55.4 °F - 53.6 °F 94% 30.05 in 7.0 mi Calm Calm - N/A   Clear
6:35 AM 55.4 °F - 53.6 °F 94% 30.06 in 8.0 mi Calm Calm - N/A   Clear
6:55 AM 55.4 °F - 53.6 °F 94% 30.06 in 8.0 mi Calm Calm - N/A   Clear
7:15 AM 57.2 °F - 55.4 °F 94% 30.07 in 4.0 mi SSE 4.6 mph - N/A   Clear
7:35 AM 59.0 °F - 55.4 °F 88% 30.07 in 8.0 mi SSE 3.5 mph - N/A   Clear
7:55 AM 60.8 °F - 57.2 °F 88% 30.09 in 9.0 mi Calm Calm - N/A   Clear
8:15 AM 62.6 °F - 59.0 °F 88% 30.10 in 10.0 mi SSE 4.6 mph - N/A   Clear
8:35 AM 62.6 °F - 59.0 °F 88% 30.11 in 10.0 mi SE 5.8 mph - N/A   Clear
8:55 AM 64.4 °F - 60.8 °F 88% 30.11 in 10.0 mi SE 4.6 mph - N/A   Clear
9:15 AM 66.2 °F - 60.8 °F 83% 30.12 in 10.0 mi SSE 4.6 mph - N/A   Clear
9:35 AM 66.2 °F - 60.8 °F 83% 30.12 in 10.0 mi SE 4.6 mph - N/A   Partly Cloudy
10:15 AM 71.6 °F - 62.6 °F 73% 30.12 in 10.0 mi East 4.6 mph - N/A   Partly Cloudy
10:35 AM 73.4 °F - 62.6 °F 69% 30.12 in 10.0 mi SSE 3.5 mph - N/A   Clear
10:55 AM 73.4 °F - 62.6 °F 69% 30.12 in 10.0 mi SSE 5.8 mph - N/A   Clear
11:15 AM 75.2 °F - 62.6 °F 65% 30.12 in 10.0 mi SE 6.9 mph - N/A   Clear
11:35 AM 75.2 °F - 59.0 °F 57% 30.12 in 10.0 mi SE 8.1 mph - N/A   Partly Cloudy
11:55 AM 77.0 °F - 57.2 °F 50% 30.11 in 10.0 mi South 5.8 mph - N/A   Clear
12:15 PM 77.0 °F - 57.2 °F 50% 30.11 in 10.0 mi SE 4.6 mph - N/A   Clear
12:35 PM 78.8 °F - 55.4 °F 44% 30.10 in 10.0 mi South 6.9 mph - N/A   Clear
12:55 PM 78.8 °F - 57.2 °F 47% 30.09 in 10.0 mi ESE 9.2 mph - N/A   Clear
1:15 PM 78.8 °F - 57.2 °F 47% 30.09 in 10.0 mi SSE 8.1 mph 16.1 mph N/A   Clear
1:35 PM 78.8 °F - 57.2 °F 47% 30.09 in 10.0 mi South 4.6 mph - N/A   Partly Cloudy
1:55 PM 80.6 °F 80.8 °F 57.2 °F 45% 30.08 in 10.0 mi SSE 9.2 mph - N/A   Partly Cloudy
2:15 PM 80.6 °F 80.8 °F 57.2 °F 45% 30.08 in 10.0 mi SE 6.9 mph - N/A   Clear
2:35 PM 78.8 °F - 55.4 °F 44% 30.07 in 10.0 mi Calm Calm - N/A   Partly Cloudy
2:55 PM 75.2 °F - 57.2 °F 53% 30.10 in 9.0 mi West 15.0 mph 23.0 mph 0.02 in Thunderstorm Scattered Clouds
3:15 PM 66.2 °F - 60.8 °F 83% 30.10 in 6.0 mi North 3.5 mph - 0.47 in Thunderstorm Thunderstorm
3:35 PM 68.0 °F - 64.4 °F 88% 30.09 in 10.0 mi North 5.8 mph - 0.48 in   Partly Cloudy
3:55 PM 69.8 °F - 64.4 °F 83% 30.08 in 10.0 mi NE 6.9 mph - 0.48 in   Clear
4:15 PM 71.6 °F - 64.4 °F 78% 30.08 in 10.0 mi ENE 4.6 mph - N/A   Clear
4:35 PM 71.6 °F - 64.4 °F 78% 30.08 in 10.0 mi NE 4.6 mph - N/A   Clear
4:55 PM 73.4 °F - 64.4 °F 73% 30.08 in 10.0 mi ENE 4.6 mph - N/A   Clear
5:15 PM 73.4 °F - 64.4 °F 73% 30.08 in 10.0 mi East 4.6 mph - N/A   Clear
5:35 PM 73.4 °F - 62.6 °F 69% 30.09 in 10.0 mi Calm Calm - N/A   Clear
5:55 PM 71.6 °F - 64.4 °F 78% 30.09 in 10.0 mi Calm Calm - N/A   Clear
6:15 PM 69.8 °F - 66.2 °F 88% 30.09 in 10.0 mi Calm Calm - N/A   Scattered Clouds
6:35 PM 69.8 °F - 64.4 °F 83% 30.09 in 9.0 mi Calm Calm - N/A   Mostly Cloudy
6:55 PM 68.0 °F - 64.4 °F 88% 30.10 in 10.0 mi Calm Calm - N/A   Scattered Clouds
7:15 PM 66.2 °F - 64.4 °F 94% 30.10 in 10.0 mi Calm Calm - N/A   Partly Cloudy
7:35 PM 66.2 °F - 64.4 °F 94% 30.10 in 9.0 mi Calm Calm - N/A   Clear
7:55 PM 66.2 °F - 64.4 °F 94% 30.11 in 10.0 mi Calm Calm - N/A   Clear
8:15 PM 66.2 °F - 64.4 °F 94% 30.12 in 10.0 mi Calm Calm - N/A   Scattered Clouds
8:35 PM 66.2 °F - 64.4 °F 94% 30.12 in 8.0 mi Calm Calm - N/A   Scattered Clouds
8:55 PM 66.2 °F - 62.6 °F 88% 30.13 in 8.0 mi Calm Calm - N/A   Partly Cloudy
9:15 PM 66.2 °F - 62.6 °F 88% 30.14 in 10.0 mi Calm Calm - N/A   Clear
9:35 PM 66.2 °F - 62.6 °F 88% 30.14 in 10.0 mi Calm Calm - N/A   Clear
9:55 PM 64.4 °F - 62.6 °F 94% 30.14 in 10.0 mi Calm Calm - N/A   Clear
10:15 PM 64.4 °F - 62.6 °F 94% 30.15 in 8.0 mi SSE 3.5 mph - N/A   Clear
10:35 PM 64.4 °F - 62.6 °F 94% 30.15 in 10.0 mi Calm Calm - N/A   Clear
10:55 PM 64.4 °F - 62.6 °F 94% 30.16 in 10.0 mi Calm Calm - N/A   Clear
11:15 PM 64.4 °F - 60.8 °F 88% 30.16 in 5.0 mi Calm Calm - N/A   Clear
11:35 PM 62.6 °F - 60.8 °F 94% 30.16 in 4.0 mi Calm Calm - N/A   Clear
11:55 PM 62.6 °F - 60.8 °F 94% 30.16 in 4.0 mi Calm Calm - N/A   Clear